TimeCST,TemperatureF,Dew PointF,Humidity,Sea Level PressureIn,VisibilityMPH,Wind Direction,Wind SpeedMPH,Gust SpeedMPH,PrecipitationIn,Events,Conditions,WindDirDegrees,DateUTC
12:15 AM,21.2,17.6,86,30.07,10.0,North,10.4,-,N/A,,Clear,360,2012-12-31 06:15:00
12:35 AM,19.4,17.6,93,30.06,10.0,North,10.4,-,N/A,,Clear,360,2012-12-31 06:35:00
12:55 AM,21.2,17.6,86,30.06,10.0,North,10.4,-,N/A,,Clear,360,2012-12-31 06:55:00
1:15 AM,21.2,19.4,93,30.03,10.0,North,11.5,-,N/A,,Clear,10,2012-12-31 07:15:00
1:35 AM,21.2,19.4,93,30.02,10.0,North,10.4,-,N/A,,Clear,10,2012-12-31 07:35:00
1:55 AM,21.2,19.4,93,30.04,10.0,North,10.4,-,N/A,,Clear,10,2012-12-31 07:55:00
2:15 AM,21.2,19.4,93,30.04,10.0,North,11.5,-,N/A,,Clear,10,2012-12-31 08:15:00
2:35 AM,21.2,19.4,93,30.05,10.0,North,11.5,-,N/A,,Clear,10,2012-12-31 08:35:00
2:55 AM,21.2,19.4,93,30.05,10.0,North,11.5,-,N/A,,Clear,360,2012-12-31 08:55:00
3:15 AM,23.0,19.4,86,30.05,10.0,North,12.7,-,N/A,,Clear,10,2012-12-31 09:15:00
3:35 AM,21.2,19.4,93,30.03,10.0,North,13.8,-,N/A,,Clear,10,2012-12-31 09:35:00
3:55 AM,21.2,21.2,100,30.04,10.0,North,11.5,-,N/A,,Mostly Cloudy,10,2012-12-31 09:55:00
4:15 AM,21.2,21.2,100,30.04,10.0,North,9.2,-,N/A,,Mostly Cloudy,360,2012-12-31 10:15:00
4:35 AM,21.2,21.2,100,30.03,10.0,North,10.4,-,N/A,,Overcast,360,2012-12-31 10:35:00
4:55 AM,21.2,21.2,100,30.02,10.0,North,11.5,-,N/A,,Overcast,360,2012-12-31 10:55:00
5:15 AM,21.2,21.2,100,30.01,10.0,North,11.5,-,N/A,,Overcast,360,2012-12-31 11:15:00
5:35 AM,21.2,21.2,100,30.01,10.0,North,12.7,-,N/A,,Overcast,360,2012-12-31 11:35:00
5:55 AM,21.2,21.2,100,30.01,10.0,North,11.5,-,N/A,,Overcast,350,2012-12-31 11:55:00
6:15 AM,21.2,21.2,100,30.01,10.0,North,13.8,-,N/A,,Overcast,10,2012-12-31 12:15:00
6:35 AM,21.2,21.2,100,30.01,10.0,NNE,11.5,-,N/A,,Overcast,20,2012-12-31 12:35:00
6:55 AM,21.2,21.2,100,30.02,10.0,NNE,13.8,-,N/A,,Overcast,20,2012-12-31 12:55:00
7:15 AM,21.2,21.2,100,30.01,10.0,NNE,13.8,-,N/A,,Overcast,20,2012-12-31 13:15:00
7:35 AM,21.2,21.2,100,30.01,10.0,NNE,13.8,-,N/A,,Overcast,30,2012-12-31 13:35:00
7:55 AM,21.2,21.2,100,30.02,7.0,NE,13.8,-,N/A,,Overcast,40,2012-12-31 13:55:00
8:15 AM,21.2,21.2,100,30.02,4.0,NNE,13.8,-,N/A,,Overcast,30,2012-12-31 14:15:00
8:35 AM,21.2,21.2,100,30.03,3.0,NNE,10.4,-,N/A,,Overcast,30,2012-12-31 14:35:00
8:55 AM,21.2,21.2,100,30.05,0.8,NE,10.4,-,N/A,,Overcast,40,2012-12-31 14:55:00
9:15 AM,21.2,21.2,100,30.05,0.5,NNE,9.2,-,N/A,Snow,Light Snow,30,2012-12-31 15:15:00
9:35 AM,21.2,21.2,100,30.03,0.8,North,13.8,-,N/A,Snow,Light Snow,10,2012-12-31 15:35:00
9:55 AM,21.2,21.2,100,30.05,0.5,NNE,11.5,-,N/A,Snow,Snow,20,2012-12-31 15:55:00
10:15 AM,21.2,21.2,100,30.06,0.5,North,11.5,-,N/A,Snow,Snow,10,2012-12-31 16:15:00
10:35 AM,21.2,21.2,100,30.05,0.5,North,15.0,-,N/A,Snow,Snow,10,2012-12-31 16:35:00
11:15 AM,23.0,23.0,100,30.04,1.5,NNE,12.7,-,N/A,Snow,Light Snow,20,2012-12-31 17:15:00
11:35 AM,23.0,23.0,100,30.04,2.0,NNE,15.0,-,N/A,Snow,Light Snow,20,2012-12-31 17:35:00
11:55 AM,23.0,23.0,100,30.04,1.0,NNE,12.7,-,N/A,Snow,Light Snow,20,2012-12-31 17:55:00
12:15 PM,23.0,23.0,100,30.03,0.8,NNE,13.8,-,N/A,Snow,Light Snow,20,2012-12-31 18:15:00
12:35 PM,23.0,23.0,100,30.03,0.8,North,13.8,-,N/A,Snow,Light Snow,10,2012-12-31 18:35:00
12:55 PM,23.0,23.0,100,30.02,1.0,North,12.7,-,N/A,Snow,Light Snow,10,2012-12-31 18:55:00
1:15 PM,23.0,23.0,100,30.02,0.8,North,11.5,-,N/A,Snow,Light Snow,360,2012-12-31 19:15:00
1:35 PM,23.0,23.0,100,30.01,0.5,North,15.0,-,N/A,Snow,Light Snow,10,2012-12-31 19:35:00
1:55 PM,23.0,23.0,100,30.01,0.5,NNE,16.1,-,N/A,Snow,Light Snow,20,2012-12-31 19:55:00
2:15 PM,23.0,23.0,100,30.01,0.8,NNE,11.5,-,N/A,Snow,Light Snow,20,2012-12-31 20:15:00
2:35 PM,23.0,23.0,100,30.01,0.8,NNE,15.0,-,N/A,Snow,Light Snow,20,2012-12-31 20:35:00
2:55 PM,23.0,23.0,100,30.01,1.2,NNE,13.8,-,N/A,Snow,Light Snow,20,2012-12-31 20:55:00
3:15 PM,23.0,23.0,100,30.01,1.2,North,16.1,-,N/A,Snow,Light Snow,10,2012-12-31 21:15:00
3:35 PM,23.0,23.0,100,30.02,2.0,North,11.5,-,N/A,Snow,Light Snow,10,2012-12-31 21:35:00
3:55 PM,23.0,23.0,100,30.03,3.0,North,13.8,-,N/A,Snow,Light Snow,360,2012-12-31 21:55:00
4:15 PM,23.0,23.0,100,30.03,4.0,North,12.7,-,N/A,Snow,Light Snow,10,2012-12-31 22:15:00
4:35 PM,23.0,23.0,100,30.04,4.0,NNE,12.7,-,N/A,Snow,Light Snow,20,2012-12-31 22:35:00
4:55 PM,23.0,23.0,100,30.04,4.0,NNE,11.5,-,N/A,Snow,Light Snow,30,2012-12-31 22:55:00
5:15 PM,23.0,23.0,100,30.04,5.0,NNE,11.5,-,N/A,Snow,Light Snow,20,2012-12-31 23:15:00
5:35 PM,23.0,23.0,100,30.05,3.0,NNE,10.4,-,N/A,Snow,Light Snow,20,2012-12-31 23:35:00
5:55 PM,21.2,21.2,100,30.05,3.0,NNE,10.4,-,N/A,Snow,Light Snow,30,2012-12-31 23:55:00
6:15 PM,21.2,21.2,100,30.06,2.5,NNE,10.4,-,N/A,Snow,Light Snow,30,2013-01-01 00:15:00
6:35 PM,21.2,21.2,100,30.06,5.0,NNE,10.4,-,N/A,Snow,Light Snow,30,2013-01-01 00:35:00
6:55 PM,21.2,21.2,100,30.07,5.0,NNE,9.2,-,N/A,Snow,Light Snow,20,2013-01-01 00:55:00
7:15 PM,19.4,19.4,100,30.07,4.0,NNE,9.2,-,N/A,Snow,Light Snow,20,2013-01-01 01:15:00
7:35 PM,19.4,19.4,100,30.08,4.0,NNE,9.2,-,N/A,Snow,Light Snow,20,2013-01-01 01:35:00
7:55 PM,19.4,19.4,100,30.08,4.0,North,9.2,-,N/A,Snow,Light Snow,10,2013-01-01 01:55:00
8:15 PM,17.6,17.6,100,30.09,7.0,North,6.9,-,N/A,Snow,Light Snow,10,2013-01-01 02:15:00
8:35 PM,17.6,17.6,100,30.09,7.0,North,6.9,-,N/A,,Overcast,10,2013-01-01 02:35:00
8:55 PM,17.6,17.6,100,30.10,4.0,NNE,6.9,-,N/A,Snow,Light Snow,20,2013-01-01 02:55:00
9:15 PM,17.6,17.6,100,30.10,4.0,North,8.1,-,N/A,Snow,Light Snow,10,2013-01-01 03:15:00
9:35 PM,17.6,17.6,100,30.11,5.0,North,5.8,-,N/A,Snow,Light Snow,10,2013-01-01 03:35:00
9:55 PM,17.6,17.6,100,30.12,10.0,North,3.5,-,N/A,,Overcast,10,2013-01-01 03:55:00
10:15 PM,19.4,19.4,100,30.13,7.0,NNE,3.5,-,N/A,,Overcast,20,2013-01-01 04:15:00
10:35 PM,19.4,19.4,100,30.13,3.0,Calm,Calm,-,N/A,Snow,Light Snow,0,2013-01-01 04:35:00
11:15 PM,19.4,19.4,100,30.14,2.5,North,4.6,-,N/A,Snow,Light Snow,360,2013-01-01 05:15:00
11:35 PM,19.4,19.4,100,30.14,3.0,North,3.5,-,N/A,Snow,Light Snow,360,2013-01-01 05:35:00
11:55 PM,19.4,19.4,100,30.14,2.0,Calm,Calm,-,N/A,Snow,Light Snow,0,2013-01-01 05:55:00